Regional Weather Roundup
Issued by NWS

Home | Current Version | Previous Version | Text Only | Print | Product List | Glossary Off
Versions: 1 2 3 4 5 6 7 8 9 10 11 12 13 14 15 16 17 18 19 20 21 22 23 24 25 26 27 28 29 30 31 32 33 34 35 36 37 38 39 40 41 42 43 44 45 46 47 48 49 50

784
ASUS44 KMEG 300210
RWRTN
TENNESSEE HOURLY STATE WEATHER ROUNDUP
NATIONAL WEATHER SERVICE MEMPHIS TN
900 PM CDT WED MAR 29 2017

TNZ002-004-019-021-049-052-054-088>092-300300-
WEST TENNESSEE

CITY           SKY/WX    TMP DP  RH WIND       PRES   REMARKS
MEMPHIS INTL   CLOUDY    75  57  53 S7        29.82S
NWS MEMPHIS      N/A     75 N/A N/A MISG        N/A
JACKSON        MOCLDY    76  58  53 S5        29.85R
DYERSBURG      PTCLDY    74  59  59 SE5       29.83S
SOMERVILLE     CLEAR     73  57  56 SE5       29.82F
BOLIVAR        PTCLDY    73  59  60 SE5       29.85S
PARIS          CLEAR     72  54  53 S9        29.86S
HUNTINGDON     MOCLDY    73  57  56 S7        29.86R
SAVANNAH       PTCLDY    73  57  56 CALM      29.86S
$$

TNZ008-025-027-028-033-062-065-066-300300-
NORTH MIDDLE TENNESSEE

CITY           SKY/WX    TMP DP  RH WIND       PRES   REMARKS
NASHVILLE      MOCLDY    73  58  59 SE3       29.90R
PORTLAND       MOCLDY    70  55  60 CALM      29.92R
CLARKSVILLE    MOCLDY    68  57  68 E7        29.87R
SMYRNA         PTCLDY    70  59  68 CALM      29.91R
COOKEVILLE     PTCLDY    70  55  60 SE3       29.92S
GALLATIN       CLOUDY    68  57  68 CALM      29.94R
CROSSVILLE     CLEAR     66  51  58 CALM      29.99F
$$

TNZ061-075-076-078-094-096-097-300300-
SOUTH MIDDLE TENNESSEE

CITY           SKY/WX    TMP DP  RH WIND       PRES   REMARKS
FAYETTEVILLE   MOCLDY    72  59  64 S7        29.92S
TULLAHOMA        N/A     72  55  56 S6        29.94S
WINCHESTER     CLEAR     66  57  72 CALM      29.94R
MCMINNVILLE    CLEAR     66  57  72 SE5       29.94R
COLUMBIA       CLEAR     70  64  83 S3        29.89R
SHELBYVILLE    CLEAR     73  61  64 SE6       29.92R
$$

TNZ017-018-042-046-047-300300-
NORTHEAST TENNESSEE

CITY           SKY/WX    TMP DP  RH WIND       PRES   REMARKS
TRI CITIES     CLEAR     58  48  69 N3        30.03S
ELIZABETHTON   CLEAR     54  48  82 CALM      30.04S
$$

TNZ012-013-036-069-073-074-300300-
CENTRAL EAST TENNESSEE

CITY           SKY/WX    TMP DP  RH WIND       PRES   REMARKS
KNOXVILLE      CLEAR     69  50  50 E3        29.97R
OAK RIDGE      CLEAR     66  52  60 CALM      29.99R
DOWNTOWN KNOXV CLEAR     61  55  82 CALM      29.98R
GATLINBURG     CLEAR     61  48  63 CALM      29.99R
MORRISTOWN     CLEAR     64  52  63 CALM      29.99S
JACKSBORO      CLEAR     63  52  67 CALM      30.01S
$$

TNZ083-085-099-300300-
SOUTHEAST TENNESSEE

CITY           SKY/WX    TMP DP  RH WIND       PRES   REMARKS
CHATTANOOGA    PTCLDY    69  57  65 CALM      29.96R
$$

SKY/WX REPORTED AS FAIR MEANS FEW OR NO CLOUDS BELOW
12 THOUSAND FEET.





USA.gov is the U.S. government's official web portal to all federal, state and local government web resources and services.